| time (UTC) | temp F | wind direction | speed MPH | gust MPH | rain 1hr in | rain 24hr in | rain mn in | humidity % | barometer mb |
| 20260505223702 | 64 | 141 | 2.0 | 7.0 | 0.00 | 0.00 | 0.00 | 73 | 1013.5 |
| 20260505223201 | 63 | 113 | 2.0 | 7.0 | 0.00 | 0.00 | 0.00 | 75 | 1013.5 |
| 20260505222154 | 64 | 231 | 2.0 | 8.0 | 0.00 | 0.00 | 0.00 | 76 | 1013.6 |
| 20260505221649 | 62 | 130 | 2.0 | 8.0 | 0.00 | 0.00 | 0.00 | 77 | 1013.7 |
| 20260505221143 | 62 | 146 | 2.0 | 7.0 | 0.00 | 0.00 | 0.00 | 78 | 1013.7 |
| 20260505220642 | 61 | 77 | 2.0 | 5.0 | 0.00 | 0.00 | 0.00 | 79 | 1013.8 |
| 20260505220140 | 61 | 147 | 2.0 | 7.0 | 0.00 | 0.00 | 0.00 | 79 | 1013.8 |
| 20260505215640 | 60 | 125 | 2.0 | 7.0 | 0.00 | 0.00 | 0.00 | 79 | 1013.9 |
| 20260505215139 | 60 | 167 | 2.0 | 7.0 | 0.00 | 0.00 | 0.00 | 79 | 1014.0 |
| 20260505214139 | 60 | 128 | 2.0 | 7.0 | 0.00 | 0.00 | 0.00 | 79 | 1013.9 |
| 20260505213640 | 60 | 122 | 3.0 | 7.0 | 0.00 | 0.00 | 0.00 | 79 | 1014.0 |
| 20260505212639 | 60 | 137 | 3.0 | 8.0 | 0.00 | 0.00 | 0.00 | 80 | 1014.0 |
| 20260505212140 | 60 | 189 | 3.0 | 9.0 | 0.00 | 0.00 | 0.00 | 80 | 1013.9 |
| 20260505211640 | 60 | 143 | 3.0 | 9.0 | 0.00 | 0.00 | 0.00 | 80 | 1014.0 |
| 20260505210639 | 59 | 182 | 3.0 | 10.0 | 0.00 | 0.00 | 0.00 | 81 | 1014.0 |
| 20260505210129 | 59 | 126 | 3.0 | 10.0 | 0.00 | 0.00 | 0.00 | 81 | 1014.1 |
| 20260505205630 | 59 | 151 | 3.0 | 8.0 | 0.00 | 0.00 | 0.00 | 81 | 1014.1 |
| 20260505205130 | 59 | 121 | 3.0 | 8.0 | 0.00 | 0.00 | 0.00 | 81 | 1014.2 |
| 20260505204626 | 59 | 118 | 2.0 | 8.0 | 0.00 | 0.00 | 0.00 | 81 | 1014.2 |
| 20260505203624 | 59 | 153 | 3.0 | 9.0 | 0.00 | 0.00 | 0.00 | 82 | 1014.2 |
| 20260505202625 | 59 | 176 | 3.0 | 8.0 | 0.00 | 0.00 | 0.00 | 82 | 1014.1 |
| 20260505202124 | 59 | 176 | 3.0 | 7.0 | 0.00 | 0.00 | 0.00 | 83 | 1014.1 |
| 20260505201622 | 59 | 147 | 2.0 | 5.0 | 0.00 | 0.00 | 0.00 | 82 | 1014.1 |
| 20260505201122 | 59 | 131 | 2.0 | 5.0 | 0.00 | 0.00 | 0.00 | 82 | 1014.0 |
| 20260505200116 | 59 | 176 | 2.0 | 7.0 | 0.00 | 0.00 | 0.00 | 84 | 1014.0 |
| 20260505195615 | 58 | 126 | 2.0 | 7.0 | 0.00 | 0.00 | 0.00 | 83 | 1014.1 |
| 20260505195119 | 58 | 183 | 2.0 | 7.0 | 0.00 | 0.00 | 0.00 | 84 | 1014.1 |
| 20260505194613 | 58 | 124 | 2.0 | 7.0 | 0.00 | 0.00 | 0.00 | 83 | 1014.1 |
| 20260505194113 | 58 | 173 | 1.0 | 6.0 | 0.00 | 0.00 | 0.00 | 85 | 1014.1 |
| 20260505193614 | 58 | 171 | 2.0 | 6.0 | 0.00 | 0.00 | 0.00 | 85 | 1014.1 |
| 20260505193114 | 58 | 145 | 2.0 | 6.0 | 0.00 | 0.00 | 0.00 | 85 | 1014.1 |
| 20260505192612 | 58 | 145 | 2.0 | 6.0 | 0.00 | 0.00 | 0.00 | 85 | 1014.1 |
| 20260505192112 | 57 | 155 | 2.0 | 6.0 | 0.00 | 0.00 | 0.00 | 85 | 1014.1 |
| 20260505191612 | 57 | 178 | 2.0 | 6.0 | 0.00 | 0.00 | 0.00 | 85 | 1014.2 |
| 20260505191111 | 57 | 168 | 2.0 | 6.0 | 0.00 | 0.00 | 0.00 | 85 | 1014.1 |
| 20260505190609 | 57 | 187 | 1.0 | 6.0 | 0.00 | 0.00 | 0.00 | 86 | 1014.1 |
| 20260505190110 | 57 | 178 | 2.0 | 6.0 | 0.00 | 0.00 | 0.00 | 85 | 1014.2 |
| 20260505185107 | 57 | 149 | 2.0 | 6.0 | 0.00 | 0.00 | 0.00 | 86 | 1014.1 |
| 20260505184608 | 57 | 156 | 2.0 | 7.0 | 0.00 | 0.00 | 0.00 | 85 | 1014.1 |
| 20260505183603 | 57 | 139 | 2.0 | 7.0 | 0.00 | 0.00 | 0.00 | 85 | 1014.0 |
| 20260505182603 | 57 | 139 | 2.0 | 4.0 | 0.00 | 0.00 | 0.00 | 86 | 1014.0 |
| 20260505182103 | 56 | 147 | 1.0 | 4.0 | 0.00 | 0.00 | 0.00 | 86 | 1014.0 |
| 20260505181103 | 56 | 175 | 1.0 | 3.0 | 0.00 | 0.00 | 0.00 | 88 | 1014.0 |
| 20260505175601 | 55 | 184 | 1.0 | 4.0 | 0.00 | 0.00 | 0.00 | 88 | 1014.0 |
| 20260505175059 | 55 | 172 | 2.0 | 4.0 | 0.00 | 0.00 | 0.00 | 88 | 1013.9 |
| 20260505174559 | 55 | 186 | 2.0 | 4.0 | 0.00 | 0.00 | 0.00 | 88 | 1013.9 |
| 20260505174058 | 55 | 176 | 1.0 | 4.0 | 0.00 | 0.00 | 0.00 | 88 | 1013.9 |
| 20260505173557 | 55 | 176 | 1.0 | 4.0 | 0.00 | 0.00 | 0.00 | 88 | 1013.9 |
| 20260505173058 | 55 | 185 | 1.0 | 3.0 | 0.00 | 0.00 | 0.00 | 89 | 1013.9 |
| 20260505172557 | 55 | 197 | 1.0 | 4.0 | 0.00 | 0.00 | 0.00 | 89 | 1013.8 |
| 20260505172057 | 55 | 183 | 2.0 | 5.0 | 0.00 | 0.00 | 0.00 | 89 | 1013.8 |
| 20260505171557 | 55 | 181 | 2.0 | 6.0 | 0.00 | 0.00 | 0.00 | 89 | 1013.9 |
| 20260505171058 | 55 | 175 | 1.0 | 6.0 | 0.00 | 0.00 | 0.00 | 90 | 1013.7 |
| 20260505170052 | 54 | 150 | 1.0 | 4.0 | 0.00 | 0.00 | 0.00 | 91 | 1013.7 |
| 20260505165546 | 54 | 184 | 1.0 | 3.0 | 0.00 | 0.00 | 0.00 | 91 | 1013.7 |
| 20260505165040 | 54 | 187 | 1.0 | 3.0 | 0.00 | 0.00 | 0.00 | 91 | 1013.7 |
| 20260505163534 | 53 | 139 | 2.0 | 5.0 | 0.00 | 0.00 | 0.00 | 92 | 1013.7 |
| 20260505162533 | 53 | 174 | 1.0 | 5.0 | 0.00 | 0.00 | 0.00 | 92 | 1013.7 |
| 20260505162031 | 53 | 166 | 1.0 | 5.0 | 0.00 | 0.00 | 0.00 | 92 | 1013.7 |
| 20260505161532 | 53 | 149 | 1.0 | 4.0 | 0.00 | 0.00 | 0.00 | 92 | 1013.8 |
| 20260505161031 | 53 | 143 | 1.0 | 5.0 | 0.00 | 0.00 | 0.00 | 92 | 1013.9 |
| 20260505160530 | 53 | 144 | 2.0 | 6.0 | 0.00 | 0.00 | 0.00 | 92 | 1013.8 |
| 20260505153019 | 52 | 149 | 2.0 | 4.0 | 0.00 | 0.00 | 0.00 | 92 | 1013.5 |
| 20260505152520 | 52 | 134 | 2.0 | 6.0 | 0.00 | 0.00 | 0.00 | 92 | 1013.5 |
| 20260505152014 | 52 | 161 | 1.0 | 6.0 | 0.00 | 0.00 | 0.00 | 92 | 1013.5 |
| 20260505151509 | 52 | 145 | 1.0 | 6.0 | 0.00 | 0.00 | 0.00 | 92 | 1013.5 |
| 20260505151003 | 52 | 170 | 1.0 | 3.0 | 0.00 | 0.00 | 0.00 | 92 | 1013.4 |
| 20260505150501 | 52 | 191 | 1.0 | 3.0 | 0.00 | 0.00 | 0.00 | 91 | 1013.4 |
| 20260505140454 | 52 | 153 | 1.0 | 3.0 | 0.00 | 0.00 | 0.00 | 91 | 1012.7 |
| 20260505124943 | 51 | 152 | 1.0 | 5.0 | 0.00 | 0.00 | 0.00 | 91 | 1012.0 |
| 20260505124440 | 51 | 137 | 0.0 | 5.0 | 0.00 | 0.00 | 0.00 | 91 | 1011.9 |
| 20260505122938 | 51 | 14 | 0.0 | 3.0 | 0.00 | 0.00 | 0.00 | 91 | 1011.8 |
| 20260505122436 | 50 | 240 | 1.0 | 5.0 | 0.00 | 0.00 | 0.00 | 91 | 1011.7 |
| 20260505121934 | 50 | 76 | 1.0 | 5.0 | 0.00 | 0.00 | 0.00 | 91 | 1011.6 |
| 20260505121433 | 50 | 65 | 1.0 | 2.0 | 0.00 | 0.00 | 0.00 | 90 | 1011.6 |
| 20260505120930 | 50 | 64 | 1.0 | 2.0 | 0.00 | 0.00 | 0.00 | 90 | 1011.6 |
| 20260505120428 | 50 | 64 | 1.0 | 3.0 | 0.00 | 0.00 | 0.00 | 91 | 1011.5 |
| 20260505115929 | 50 | 49 | 1.0 | 4.0 | 0.00 | 0.00 | 0.00 | 91 | 1011.5 |
| 20260505115429 | 50 | 124 | 1.0 | 4.0 | 0.00 | 0.00 | 0.00 | 90 | 1011.4 |
| 20260505114929 | 50 | 10 | 0.0 | 3.0 | 0.00 | 0.00 | 0.00 | 90 | 1011.4 |
| 20260505113929 | 50 | 130 | 0.0 | 2.0 | 0.00 | 0.00 | 0.00 | 90 | 1011.4 |
| 20260505113429 | 50 | 115 | 0.0 | 0.0 | 0.00 | 0.00 | 0.00 | 90 | 1011.3 |
| 20260505112428 | 51 | 116 | 1.0 | 4.0 | 0.00 | 0.00 | 0.00 | 90 | 1011.1 |
| 20260505111929 | 50 | 116 | 1.0 | 4.0 | 0.00 | 0.00 | 0.00 | 90 | 1011.1 |
| 20260505111428 | 50 | 14 | 1.0 | 4.0 | 0.00 | 0.00 | 0.00 | 89 | 1011.1 |
| 20260505110929 | 50 | 27 | 1.0 | 4.0 | 0.00 | 0.00 | 0.00 | 89 | 1011.0 |
| 20260505110426 | 51 | 307 | 1.0 | 4.0 | 0.00 | 0.00 | 0.00 | 89 | 1010.9 |
| 20260505101918 | 52 | 224 | 2.0 | 6.0 | 0.00 | 0.00 | 0.00 | 88 | 1010.5 |
| 20260505101419 | 52 | 137 | 2.0 | 6.0 | 0.00 | 0.00 | 0.00 | 88 | 1010.4 |
| 20260505100419 | 52 | 142 | 2.0 | 7.0 | 0.00 | 0.00 | 0.00 | 88 | 1010.4 |
| 20260505095417 | 52 | 122 | 1.0 | 7.0 | 0.00 | 0.00 | 0.00 | 87 | 1010.5 |
| 20260505094913 | 52 | 101 | 1.0 | 5.0 | 0.00 | 0.00 | 0.00 | 87 | 1010.5 |
| 20260505093402 | 52 | 108 | 2.0 | 9.0 | 0.00 | 0.00 | 0.00 | 87 | 1010.4 |
| 20260505092403 | 52 | 146 | 1.0 | 6.0 | 0.00 | 0.00 | 0.00 | 86 | 1010.2 |
| 20260505091902 | 52 | 108 | 2.0 | 8.0 | 0.00 | 0.00 | 0.00 | 86 | 1010.2 |
| 20260505091402 | 52 | 118 | 2.0 | 8.0 | 0.00 | 0.00 | 0.00 | 86 | 1010.1 |
| 20260505090902 | 53 | 125 | 2.0 | 10.0 | 0.00 | 0.00 | 0.00 | 85 | 1010.1 |
| 20260505090403 | 53 | 139 | 1.0 | 10.0 | 0.00 | 0.00 | 0.00 | 85 | 1010.1 |
| 20260505085902 | 53 | 31 | 1.0 | 7.0 | 0.00 | 0.00 | 0.00 | 85 | 1010.1 |
| 20260505085402 | 53 | 77 | 1.0 | 7.0 | 0.00 | 0.00 | 0.00 | 84 | 1010.1 |
| 20260505084400 | 53 | 56 | 2.0 | 8.0 | 0.00 | 0.00 | 0.00 | 84 | 1010.0 |
| 20260505082900 | 54 | 256 | 2.0 | 8.0 | 0.00 | 0.00 | 0.00 | 82 | 1009.8 |
| 20260505082358 | 54 | 324 | 3.0 | 9.0 | 0.00 | 0.00 | 0.00 | 82 | 1009.7 |
| 20260505081903 | 54 | 245 | 3.0 | 9.0 | 0.00 | 0.00 | 0.00 | 82 | 1009.7 |
| 20260505081358 | 54 | 293 | 3.0 | 10.0 | 0.00 | 0.00 | 0.00 | 82 | 1009.3 |
| 20260505080858 | 54 | 90 | 3.0 | 10.0 | 0.00 | 0.00 | 0.00 | 82 | 1009.1 |
| 20260505080358 | 54 | 117 | 4.0 | 12.0 | 0.00 | 0.00 | 0.00 | 82 | 1009.1 |
| 20260505075858 | 54 | 137 | 6.0 | 25.0 | 0.00 | 0.00 | 0.00 | 82 | 1009.0 |
| 20260505074858 | 53 | 79 | 3.0 | 12.0 | 0.00 | 0.00 | 0.00 | 85 | 1009.0 |
| 20260505074358 | 53 | 293 | 3.0 | 12.0 | 0.00 | 0.00 | 0.00 | 84 | 1009.0 |
| 20260505073853 | 53 | 153 | 3.0 | 7.0 | 0.00 | 0.00 | 0.00 | 84 | 1008.9 |
| 20260505072842 | 53 | 276 | 3.0 | 16.0 | 0.00 | 0.00 | 0.00 | 84 | 1008.9 |
| 20260505071838 | 53 | 122 | 3.0 | 11.0 | 0.00 | 0.00 | 0.00 | 83 | 1008.9 |
| 20260505071338 | 53 | 39 | 3.0 | 11.0 | 0.00 | 0.00 | 0.00 | 83 | 1008.8 |
| 20260505070838 | 54 | 117 | 3.0 | 10.0 | 0.00 | 0.00 | 0.00 | 82 | 1008.8 |
| 20260505065836 | 54 | 310 | 4.0 | 10.0 | 0.00 | 0.00 | 0.00 | 81 | 1008.6 |
| 20260505065337 | 54 | 101 | 3.0 | 10.0 | 0.00 | 0.00 | 0.00 | 81 | 1008.6 |
| 20260505064836 | 54 | 45 | 4.0 | 10.0 | 0.00 | 0.00 | 0.00 | 80 | 1008.5 |
| 20260505064337 | 55 | 103 | 4.0 | 11.0 | 0.00 | 0.00 | 0.00 | 80 | 1008.5 |
| 20260505063837 | 55 | 125 | 3.0 | 11.0 | 0.00 | 0.00 | 0.00 | 80 | 1008.4 |
| 20260505063336 | 55 | 157 | 2.0 | 10.0 | 0.00 | 0.00 | 0.00 | 79 | 1008.5 |
| 20260505062833 | 55 | 107 | 2.0 | 10.0 | 0.00 | 0.00 | 0.00 | 78 | 1008.4 |
| 20260505062331 | 55 | 135 | 1.0 | 4.0 | 0.00 | 0.00 | 0.00 | 77 | 1008.4 |
| 20260505061831 | 55 | 92 | 1.0 | 4.0 | 0.00 | 0.00 | 0.00 | 76 | 1008.3 |
| 20260505061329 | 55 | 93 | 1.0 | 4.0 | 0.00 | 0.00 | 0.00 | 75 | 1008.3 |
| 20260505060826 | 55 | 295 | 1.0 | 4.0 | 0.00 | 0.00 | 0.00 | 75 | 1008.2 |
| 20260505055322 | 56 | 297 | 0.0 | 2.0 | 0.00 | 0.00 | 0.00 | 73 | 1008.0 |
| 20260505054821 | 56 | 295 | 1.0 | 3.0 | 0.00 | 0.00 | 0.00 | 73 | 1008.0 |
| 20260505054320 | 56 | 295 | 1.0 | 3.0 | 0.00 | 0.00 | 0.00 | 72 | 1008.1 |
| 20260505053821 | 57 | 43 | 1.0 | 2.0 | 0.00 | 0.00 | 0.00 | 72 | 1008.0 |
| 20260505053320 | 57 | 43 | 1.0 | 3.0 | 0.00 | 0.00 | 0.00 | 71 | 1007.9 |
| 20260505052320 | 58 | 51 | 1.0 | 3.0 | 0.00 | 0.00 | 0.00 | 70 | 1007.8 |
| 20260505051819 | 58 | 51 | 1.0 | 3.0 | 0.00 | 0.00 | 0.00 | 70 | 1007.8 |
| 20260505050819 | 58 | 122 | 1.0 | 5.0 | 0.00 | 0.00 | 0.00 | 69 | 1007.7 |
| 20260505041322 | 60 | 126 | 4.0 | 9.0 | 0.00 | 0.00 | 0.00 | 67 | 1007.1 |
| 20260505040817 | 60 | 116 | 3.0 | 9.0 | 0.00 | 0.00 | 0.00 | 67 | 1007.1 |
| 20260505040317 | 60 | 116 | 3.0 | 8.0 | 0.00 | 0.00 | 0.00 | 66 | 1007.0 |
| 20260505035818 | 60 | 139 | 3.0 | 7.0 | 0.00 | 0.00 | 0.00 | 66 | 1006.9 |
| 20260505035317 | 61 | 118 | 2.0 | 6.0 | 0.00 | 0.00 | 0.00 | 66 | 1006.8 |
| 20260505034817 | 61 | 119 | 2.0 | 6.0 | 0.00 | 0.00 | 0.00 | 66 | 1006.9 |
| 20260505034316 | 61 | 135 | 2.0 | 8.0 | 0.00 | 0.00 | 0.00 | 65 | 1006.8 |
| 20260505033315 | 62 | 149 | 1.0 | 5.0 | 0.00 | 0.00 | 0.00 | 65 | 1006.8 |
| 20260505032814 | 62 | 154 | 1.0 | 3.0 | 0.00 | 0.00 | 0.00 | 65 | 1006.7 |
| 20260505031814 | 62 | 119 | 2.0 | 5.0 | 0.00 | 0.00 | 0.00 | 64 | 1006.6 |
| 20260505031315 | 63 | 124 | 2.0 | 5.0 | 0.00 | 0.00 | 0.00 | 64 | 1006.6 |
| 20260505030815 | 63 | 118 | 1.0 | 5.0 | 0.00 | 0.00 | 0.00 | 63 | 1006.5 |
| 20260505030315 | 64 | 105 | 0.0 | 3.0 | 0.00 | 0.00 | 0.00 | 64 | 1006.5 |
| 20260505025814 | 64 | 100 | 0.0 | 2.0 | 0.00 | 0.00 | 0.00 | 64 | 1006.4 |
| 20260505025315 | 64 | 124 | 1.0 | 2.0 | 0.00 | 0.00 | 0.00 | 65 | 1006.4 |
| 20260505024310 | 65 | 124 | 1.0 | 3.0 | 0.00 | 0.00 | 0.00 | 63 | 1006.4 |
| 20260505023810 | 65 | 304 | 1.0 | 3.0 | 0.00 | 0.00 | 0.00 | 63 | 1006.4 |
| 20260505023311 | 65 | 304 | 1.0 | 3.0 | 0.00 | 0.00 | 0.00 | 63 | 1006.4 |
| 20260505022811 | 67 | 304 | 1.0 | 2.0 | 0.00 | 0.00 | 0.00 | 61 | 1006.4 |
| 20260505022310 | 67 | 304 | 0.0 | 3.0 | 0.00 | 0.00 | 0.00 | 60 | 1006.4 |
| 20260505021810 | 68 | 304 | 0.0 | 3.0 | 0.00 | 0.00 | 0.00 | 59 | 1006.5 |
| 20260505021311 | 69 | 304 | 1.0 | 2.0 | 0.00 | 0.00 | 0.00 | 58 | 1006.5 |
| 20260505020811 | 69 | 304 | 1.0 | 4.0 | 0.00 | 0.00 | 0.00 | 57 | 1006.5 |
| 20260505020311 | 69 | 304 | 2.0 | 4.0 | 0.00 | 0.00 | 0.00 | 57 | 1006.5 |
| 20260505015810 | 69 | 305 | 1.0 | 4.0 | 0.00 | 0.00 | 0.00 | 58 | 1006.5 |
| 20260505015311 | 69 | 316 | 1.0 | 2.0 | 0.00 | 0.00 | 0.00 | 58 | 1006.5 |
| 20260505014307 | 69 | 304 | 1.0 | 3.0 | 0.00 | 0.00 | 0.00 | 58 | 1006.6 |
| 20260505013806 | 69 | 318 | 1.0 | 3.0 | 0.00 | 0.00 | 0.00 | 57 | 1006.6 |
| 20260505013308 | 70 | 318 | 2.0 | 4.0 | 0.00 | 0.00 | 0.00 | 54 | 1006.6 |
| 20260505012307 | 72 | 137 | 2.0 | 7.0 | 0.00 | 0.00 | 0.00 | 49 | 1006.6 |
| 20260505011306 | 73 | 114 | 2.0 | 7.0 | 0.00 | 0.00 | 0.00 | 46 | 1006.7 |
| 20260505010804 | 73 | 82 | 2.0 | 7.0 | 0.00 | 0.00 | 0.00 | 44 | 1006.7 |
| 20260505010303 | 73 | 109 | 2.0 | 6.0 | 0.00 | 0.00 | 0.00 | 43 | 1006.7 |
| 20260505005802 | 73 | 126 | 3.0 | 9.0 | 0.00 | 0.00 | 0.00 | 43 | 1006.7 |
| 20260505005303 | 73 | 109 | 3.0 | 9.0 | 0.00 | 0.00 | 0.00 | 41 | 1006.7 |
| 20260505004800 | 74 | 91 | 2.0 | 8.0 | 0.00 | 0.00 | 0.00 | 42 | 1006.8 |
| 20260505004301 | 74 | 110 | 2.0 | 7.0 | 0.00 | 0.00 | 0.00 | 41 | 1006.8 |
| 20260505003800 | 73 | 133 | 2.0 | 8.0 | 0.00 | 0.00 | 0.00 | 41 | 1006.8 |
| 20260505003303 | 73 | 111 | 3.0 | 8.0 | 0.00 | 0.00 | 0.00 | 42 | 1006.8 |
| 20260505002800 | 73 | 130 | 3.0 | 11.0 | 0.00 | 0.00 | 0.00 | 43 | 1006.9 |
| 20260505002258 | 73 | 118 | 2.0 | 11.0 | 0.00 | 0.00 | 0.00 | 42 | 1006.9 |
| 20260505001756 | 73 | 110 | 2.0 | 11.0 | 0.00 | 0.00 | 0.00 | 43 | 1006.9 |
| 20260505001255 | 73 | 164 | 2.0 | 11.0 | 0.00 | 0.00 | 0.00 | 45 | 1007.1 |
| 20260505000756 | 73 | 141 | 3.0 | 8.0 | 0.00 | 0.00 | 0.00 | 46 | 1007.0 |
| 20260505000254 | 73 | 141 | 3.0 | 10.0 | 0.00 | 0.00 | 0.00 | 45 | 1007.0 |
| 20260504235754 | 73 | 141 | 4.0 | 10.0 | 0.00 | 0.00 | 0.00 | 45 | 1007.0 |
| 20260504235254 | 72 | 110 | 4.0 | 10.0 | 0.00 | 0.00 | 0.00 | 46 | 1007.0 |
| 20260504234752 | 72 | 126 | 5.0 | 11.0 | 0.00 | 0.00 | 0.00 | 46 | 1007.1 |
| 20260504234252 | 72 | 130 | 6.0 | 11.0 | 0.00 | 0.00 | 0.00 | 46 | 1007.1 |
| 20260504233752 | 71 | 124 | 6.0 | 11.0 | 0.00 | 0.00 | 0.00 | 46 | 1007.1 |
| 20260504233252 | 72 | 116 | 6.0 | 12.0 | 0.00 | 0.00 | 0.00 | 46 | 1007.1 |
| 20260504232251 | 72 | 122 | 5.0 | 12.0 | 0.00 | 0.00 | 0.00 | 44 | 1007.1 |
| 20260504231752 | 73 | 130 | 6.0 | 11.0 | 0.00 | 0.00 | 0.00 | 48 | 1007.1 |
| 20260504231253 | 73 | 139 | 4.0 | 11.0 | 0.00 | 0.00 | 0.00 | 46 | 1007.2 |
| 20260504230251 | 74 | 117 | 4.0 | 10.0 | 0.00 | 0.00 | 0.00 | 46 | 1007.4 |
| 20260504225745 | 74 | 113 | 4.0 | 10.0 | 0.00 | 0.00 | 0.00 | 48 | 1007.3 |
| 20260504224744 | 74 | 137 | 4.0 | 9.0 | 0.00 | 0.00 | 0.00 | 48 | 1007.4 |
| 20260504224244 | 76 | 111 | 3.0 | 10.0 | 0.00 | 0.00 | 0.00 | 46 | 1007.4 |